Regional Weather Roundup
Issued by NWS Newport/Morehead, NC

Current Version | Previous Version | Graphics & Text | Print | Product List | Glossary Off
Versions: 1 2 3 4 5 6 7 8 9 10 11 12 13 14 15 16 17 18 19 20 21 22 23 24 25 26 27 28 29 30 31 32 33 34 35 36 37 38 39 40 41 42 43 44 45 46 47 48 49 50

000
ASUS42 KMHX 020713
RWRMHX
WEATHER ROUNDUP FOR EASTERN NORTH CAROLINA
NATIONAL WEATHER SERVICE NEWPORT/MOREHEAD CITY NC
300 AM EDT THU JUL 02 2015

NOTE: "FAIR" INDICATES FEW OR NO CLOUDS BELOW 12,000 FEET
WITH NO SIGNIFICANT WEATHER AND/OR OBSTRUCTIONS TO VISIBILITY

NCZ015>017-031-032-045>047-102-103-020800-
NORTH COAST

CITY           SKY/WX    TMP DP  RH WIND       PRES   REMARKS
EDENTON        NOT AVBL
ELIZABETH CITY MOCLDY    75  72  90 SW5       29.92F
KITTY HAWK     NOT AVBL
MANTEO         NOT AVBL

$$

NCZ045>047-081-094-103-104-020800-
CENTRAL COAST

CITY           SKY/WX    TMP DP  RH WIND       PRES   REMARKS
FRISCO         CLEAR     78  75  90 W7        29.95F
SWANQUARTER      N/A     79 N/A N/A W7G16     29.91S

$$

NCZ095-097-098-100-101-020800-
SOUTHERN COAST

CITY           SKY/WX    TMP DP  RH WIND       PRES   REMARKS
BEAUFORT       PTCLDY    79  77  94 SW13      29.95F
CEDAR ISLAND     N/A     77 N/A N/A SW7       30.00S
JACKSONVILLE   CLEAR     75  71  87 SW6       29.94F
PINEY ISLAND   SUNNY    N/A N/A N/A SW6       29.95F
WILMINGTON     CLEAR     79  73  82 SW10      29.96F


$$

NCZ011>013-027>030-043-044-078>080-089-090>093-098-020800-
COASTAL PLAIN

CITY           SKY/WX    TMP DP  RH WIND       PRES   REMARKS
AHOSKIE        CLOUDY    71  70  95 CALM      29.92S FOG
CLINTON        NOT AVBL
ELIZABETHTOWN  NOT AVBL
GOLDSBORO      CLOUDY    76  72  86 SW8       29.91F
GREENVILLE     MOCLDY    77  73  88 SW7       29.95
HAVELOCK       CLEAR     74  71  91 SW6       29.96S
KENANSVILLE    NOT AVBL
KINSTON        NOT AVBL
NEW BERN       CLEAR     74  71  91 S5        29.96S
RICHLANDS      PTCLDY    73  66  78 SW6       29.96S
ROCKY MOUNT    CLOUDY    76  71  85 S6        29.92F
WASHINGTON     NOT AVBL
WHITEVILLE     NOT AVBL

$$

AMZ130-135-150-152-154-156-158-170-250-252-270-ANZ085-086-088-633-658-670-020800-
MARINE OBSERVATIONS

STATION/POSITION TIME  TEMP    WIND        PRES    WAVE   SWELL
                       AIR SEA DIR/SP/G            HT/PER HT/PER
                 (UTC) (F)     (DEG/KT/KT) (MB)    (FT/S) (FT/S)
CHESAPEAKE LIGHT 0700   77     240/ 10/ 11 1013.3
64 E VA BEACH    0650   78 77  220/  8/ 10 1012.9    4/ 8   3/ 8
DUCK             0600   79 62  250/ 12/ 16 1012.5
2 E DUCK         0611      68                N/A     2/ 8
OREGON INLET     0600   79 76  240/ 14/ 17 1013.8
13E OREGON INLT  0700      73                N/A     4/ 8
HATTERAS CG      0600   76 80  230/  6/  8 1014.1
DIAMOND BUOY     0650   80 82  250/ 16/ 17 1014.2    5/ 8   2/ 8
CAPE LOOKOUT     0600   79     240/  9/ 12 1014.3
BEAUFORT LAB     0600   79 81  250/  4/ 10 1013.7
30 SE NEW RVR IN 0608   80 80  240/ 16/ 19 1015.4
27 SE WRIGHTSVLE 0600      80  240/ 16/ 19   N/A
5 SE WRIGHTSVLE  0608   80 80  230/ 14/ 17 1014.7
225 S CAPE HAT   0650   82 80  230/ 16/ 19 1018.5    6/ 8   2/11
41 SE CHARLESTON 0650   82 82  230/ 14/ 17 1015.1    4/ 6   2/ 7

$$



USA.gov is the U.S. government's official web portal to all federal, state and local government web resources and services.